Погода в Обильном

Россия / Ставропольский край     44°14′42″N   43°33′38″E
темп.,
°C
ветер,
м/с
пор.,
м/с
влажн.,
%
обл.,
%
осадки,
мм/ч
давл.,
гПа
погр.,
м
17 мая, вт
вт1700:00+12зсз498772 0.0 1018240
03:00+11з368945 0.0 1018120
06:00+13з388641 0.0 1017364
09:00+16з346293 0.0 1017847
12:00+20сз464691 0.0 10152314
15:00+19зсз345195 0.3 10141939
18:00+14з4881100 0.8 1015201
21:00+13зюз3685100 1.2 1017139
18 мая, ср
ср1800:00+13з268637 0.0 1016200
03:00+11ююз228920 0.0 101616
06:00+13ююз128426 0.0 101575
09:00+18ююв44605 0.0 1014908
12:00+20юв5552100 0.0 10121598
15:00+21вюв6652100 0.0 10091481
18:00+19вюв366886 0.0 1009157
21:00+15юв33785 0.0 101033
19 мая, чт
чт1900:00+12ююв22894 0.0 101024
03:00+12зсз459019 0.0 101171
06:00+13сз61286100 0.0 1014653
09:00+13зсз81275100 0.0 1017885
12:00+11зсз71072100 0.0 1019938
15:00+11зсз51278100 0.3 10191093
18:00+10з41182100 0.9 1019507
21:00+10зсз71474100 0.9 10211190
20 мая, пт
пт2000:00+9з8157996 0.0 1022936
03:00+9з81572100 0.0 1023675
06:00+9з7147479 0.1 1024709
09:00+14зсз9115899 0.1 10241504
12:00+17зсз8115075 0.1 10232162
15:00+17сз91251100 0.1 10222173
18:00+15зсз71369100 0.1 10231152
21:00+13з5137699 0.3 1025549
21 мая, сб
сб2100:00+10з4118316 0.1 1024275
03:00+9зюз34876 0.1 102468
06:00+11зюз25784 0.0 1023125
09:00+17з33535 0.0 10211041
12:00+20юз23460 0.0 10181652
15:00+21зсз23421 0.0 10171876
18:00+20зсз12585 0.0 1015106
21:00+14сз22786 0.0 101511